QPF
0.01 0.00 0.00 0.01 0.01 0.00 0.00 0.00 0.00 0.00 0.00 0.00 0.00 0.00 0.00 0.01 0.01 0.01 0.01 0.01 0.01 0.00 0.00 0.00 0.00 0.01 0.01 0.01 0.00 0.01 0.01 0.01 0.02 0.05 0.04 0.03 0.04 0.04 0.03 0.02 0.01 0.01 0.01 0.01
0.01 0.01 0.00 0.01 0.01 0.01 0.00 0.00 0.00 0.00 0.00 0.00 0.00 0.00 0.00 0.00 0.00 0.00 0.01 0.01 0.01 0.00 0.00 0.00 0.00 0.00 0.01 0.01 0.01 0.00 0.01 0.01 0.02 0.04 0.05 0.03 0.03 0.04 0.04 0.02 0.01 0.02 0.02 0.02
0.00 0.01 0.00 0.01 0.01 0.01 0.00 0.00 0.00 0.00 0.00 0.00 0.00 0.00 0.00 0.00 0.00 0.00 0.00 0.00 0.00 0.00 0.00 0.00 0.00 0.00 0.00 0.01 0.01 0.01 0.00 0.01 0.02 0.03 0.05 0.04 0.03 0.04 0.04 0.03 0.02 0.02 0.03 0.04
0.01 0.00 0.01 0.01 0.01 0.01 0.00 0.00 0.00 0.00 0.00 0.00 0.00 0.00 0.00 0.00 0.00 0.00 0.00 0.00 0.00 0.00 0.00 0.00 0.00 0.00 0.00 0.01 0.01 0.02 0.02 0.01 0.02 0.03 0.04 0.05 0.03 0.04 0.04 0.03 0.02 0.02 0.03 0.05
0.01 0.00 0.00 0.01 0.01 0.01 0.00 0.00 0.00 0.00 0.00 0.00 0.00 0.00 0.00 0.00 0.00 0.00 0.00 0.00 0.00 0.00 0.00 0.00 0.00 0.00 0.00 0.00 0.01 0.02 0.03 0.02 0.03 0.03 0.03 0.04 0.04 0.03 0.04 0.04 0.04 0.04 0.04 0.05
0.01 0.00 0.00 0.01 0.01 0.00 0.00 0.00 0.00 0.00 0.00 0.00 0.00 0.00 0.00 0.00 0.00 0.00 0.01 0.01 0.01 0.00 0.00 0.00 0.00 0.00 0.00 0.00 0.01 0.01 0.02 0.02 0.03 0.03 0.03 0.04 0.03 0.04 0.04 0.04 0.04 0.04 0.04 0.05
0.01 0.00 0.00 0.01 0.01 0.01 0.00 0.01 0.01 0.01 0.01 0.00 0.00 0.00 0.00 0.00 0.01 0.01 0.01 0.02 0.01 0.00 0.00 0.00 0.00 0.00 0.00 0.00 0.00 0.01 0.01 0.02 0.03 0.05 0.04 0.03 0.03 0.03 0.04 0.05 0.04 0.04 0.04 0.04
0.01 0.00 0.00 0.00 0.01 0.01 0.00 0.01 0.01 0.00 0.00 0.00 0.00 0.00 0.00 0.01 0.00 0.00 0.01 0.01 0.01 0.01 0.00 0.00 0.00 0.00 0.00 0.00 0.01 0.01 0.01 0.01 0.02 0.04 0.05 0.04 0.04 0.04 0.04 0.04 0.05 0.04 0.04 0.03
0.01 0.01 0.00 0.00 0.00 0.00 0.00 0.01 0.01 0.01 0.01 0.00 0.00 0.00 0.00 0.00 0.00 0.00 0.00 0.01 0.01 0.01 0.01 0.01 0.00 0.00 0.00 0.00 0.00 0.00 0.01 0.01 0.02 0.03 0.05 0.06 0.05 0.04 0.04 0.03 0.03 0.03 0.04 0.03
0.01 0.00 0.00 0.00 0.00 0.00 0.00 0.00 0.01 0.01 0.01 0.00 0.00 0.00 0.00 0.00 0.00 0.01 0.01 0.01 0.02 0.01 0.01 0.01 0.01 0.00 0.00 0.00 0.00 0.00 0.01 0.01 0.02 0.03 0.04 0.06 0.07 0.07 0.06 0.05 0.03 0.02 0.02 0.03
0.00 0.00 0.00 0.01 0.01 0.01 0.01 0.01 0.01 0.01 0.01 0.01 0.00 0.00 0.00 0.00 0.01 0.01 0.01 0.01 0.02 0.02 0.01 0.02 0.01 0.01 0.01 0.00 0.00 0.01 0.01 0.02 0.02 0.03 0.04 0.07 0.09 0.09 0.09 0.08 0.06 0.04 0.02 0.02
0.00 0.01 0.00 0.00 0.01 0.01 0.01 0.01 0.01 0.02 0.01 0.01 0.00 0.00 0.00 0.00 0.00 0.01 0.01 0.01 0.01 0.02 0.01 0.01 0.01 0.01 0.01 0.01 0.01 0.01 0.02 0.03 0.04 0.04 0.04 0.05 0.07 0.08 0.10 0.09 0.08 0.06 0.04 0.02
0.01 0.01 0.01 0.01 0.01 0.01 0.01 0.01 0.01 0.01 0.01 0.01 0.01 0.00 0.00 0.00 0.00 0.01 0.01 0.01 0.01 0.01 0.01 0.00 0.00 0.01 0.01 0.01 0.02 0.02 0.02 0.03 0.04 0.04 0.04 0.04 0.04 0.05 0.07 0.09 0.08 0.07 0.06 0.04
0.02 0.02 0.01 0.01 0.00 0.00 0.00 0.00 0.01 0.02 0.02 0.01 0.01 0.00 0.00 0.00 0.00 0.00 0.00 0.01 0.01 0.01 0.01 0.00 0.00 0.01 0.01 0.02 0.03 0.02 0.02 0.03 0.04 0.04 0.04 0.04 0.04 0.05 0.05 0.06 0.08 0.08 0.07 0.06
0.01 0.02 0.01 0.01 0.00 0.00 0.00 0.00 0.00 0.01 0.01 0.01 0.00 0.00 0.00 0.00 0.00 0.00 0.00 0.00 0.00 0.01 0.01 0.01 0.01 0.01 0.01 0.02 0.03 0.03 0.02 0.03 0.04 0.04 0.03 0.03 0.04 0.05 0.05 0.06 0.06 0.06 0.06 0.07
0.01 0.02 0.01 0.00 0.00 0.00 0.01 0.00 0.00 0.00 0.00 0.00 0.00 0.00 0.00 0.00 0.00 0.00 0.00 0.00 0.00 0.00 0.01 0.01 0.01 0.01 0.01 0.02 0.03 0.03 0.02 0.02 0.03 0.04 0.04 0.04 0.03 0.04 0.04 0.05 0.05 0.05 0.06 0.07
0.01 0.01 0.01 0.01 0.00 0.00 0.00 0.00 0.00 0.00 0.00 0.00 0.00 0.00 0.00 0.00 0.00 0.00 0.00 0.01 0.01 0.01 0.01 0.01 0.01 0.02 0.01 0.01 0.02 0.02 0.02 0.01 0.01 0.01 0.02 0.03 0.03 0.03 0.03 0.03 0.03 0.03 0.04 0.05
0.02 0.02 0.02 0.02 0.01 0.01 0.00 0.00 0.00 0.00 0.00 0.00 0.00 0.00 0.00 0.00 0.00 0.00 0.00 0.00 0.01 0.01 0.01 0.01 0.01 0.01 0.01 0.01 0.01 0.01 0.01 0.02 0.01 0.01 0.01 0.01 0.01 0.02 0.02 0.02 0.02 0.02 0.02 0.02
0.01 0.02 0.04 0.04 0.03 0.01 0.00 0.00 0.00 0.00 0.00 0.01 0.01 0.01 0.00 0.00 0.00 0.01 0.01 0.00 0.00 0.00 0.00 0.00 0.00 0.01 0.01 0.01 0.01 0.01 0.02 0.02 0.02 0.01 0.01 0.01 0.01 0.01 0.02 0.02 0.02 0.02 0.02 0.02
0.02 0.03 0.05 0.05 0.04 0.01 0.01 0.00 0.00 0.01 0.01 0.01 0.01 0.01 0.01 0.01 0.01 0.01 0.01 0.00 0.00 0.00 0.00 0.01 0.01 0.01 0.01 0.01 0.01 0.02 0.02 0.02 0.02 0.02 0.02 0.02 0.02 0.02 0.02 0.02 0.02 0.02 0.02 0.02
0.02 0.04 0.05 0.04 0.03 0.01 0.01 0.00 0.01 0.01 0.01 0.01 0.00 0.01 0.01 0.01 0.01 0.01 0.00 0.00 0.01 0.01 0.01 0.01 0.01 0.02 0.02 0.02 0.02 0.02 0.02 0.02 0.02 0.02 0.02 0.01 0.01 0.02 0.02 0.02 0.02 0.02 0.02 0.03
0.01 0.01 0.02 0.02 0.03 0.02 0.00 0.00 0.01 0.01 0.00 0.00 0.00 0.00 0.00 0.00 0.00 0.00 0.00 0.00 0.00 0.00 0.01 0.01 0.01 0.01 0.01 0.01 0.01 0.01 0.01 0.01 0.01 0.01 0.01 0.01 0.01 0.01 0.01 0.02 0.02 0.02 0.02 0.02
0.00 0.00 0.01 0.01 0.01 0.01 0.00 0.00 0.00 0.00 0.00 0.00 0.00 0.00 0.00 0.00 0.00 0.00 0.00 0.00 0.00 0.01 0.01 0.01 0.01 0.01 0.01 0.01 0.01 0.01 0.01 0.01 0.01 0.01 0.01 0.00 0.00 0.00 0.00 0.01 0.01 0.01 0.01 0.01
0.01 0.01 0.01 0.01 0.01 0.00 0.00 0.00 0.00 0.00 0.00 0.00 0.00 0.00 0.00 0.01 0.00 0.00 0.01 0.01 0.01 0.01 0.01 0.01 0.01 0.01 0.01 0.01 0.01 0.01 0.01 0.01 0.00 0.00 0.00 0.00 0.00 0.00 0.00 0.00 0.00 0.00 0.00 0.00
0.02 0.01 0.01 0.01 0.01 0.00 0.00 0.00 0.00 0.00 0.00 0.00 0.00 0.00 0.01 0.01 0.01 0.01 0.01 0.01 0.01 0.01 0.01 0.01 0.01 0.01 0.01 0.01 0.01 0.01 0.01 0.00 0.00 0.00 0.00 0.00 0.00 0.00 0.00 0.00 0.00 0.00 0.00 0.00
0.01 0.01 0.01 0.01 0.01 0.01 0.01 0.01 0.01 0.01 0.00 0.00 0.00 0.00 0.01 0.01 0.01 0.01 0.01 0.01 0.01 0.01 0.01 0.01 0.01 0.01 0.00 0.00 0.00 0.00 0.00 0.00 0.00 0.00 0.00 0.00 0.00 0.00 0.00 0.00 0.00 0.00 0.00 0.00
MSLP
1020.29 1020.71 1021.16 1021.57 1021.89 1022.09 1022.15 1022.10 1021.97 1021.79 1021.62 1021.49 1021.45 1021.49 1021.61 1021.79 1022.00 1022.20 1022.39 1022.54 1022.67 1022.78 1022.89 1023.01 1023.14 1023.30 1023.47 1023.66 1023.84 1024.02 1024.20 1024.39 1024.60 1024.82 1025.06 1025.31 1025.54 1025.74 1025.89 1025.98 1026.01 1025.99 1025.96 1025.95
1020.86 1021.24 1021.59 1021.88 1022.07 1022.15 1022.12 1022.00 1021.82 1021.63 1021.47 1021.36 1021.31 1021.34 1021.44 1021.58 1021.74 1021.91 1022.07 1022.23 1022.39 1022.55 1022.72 1022.90 1023.10 1023.29 1023.49 1023.67 1023.83 1023.99 1024.14 1024.30 1024.49 1024.70 1024.94 1025.20 1025.44 1025.65 1025.80 1025.88 1025.90 1025.87 1025.82 1025.79
1021.50 1021.87 1022.16 1022.36 1022.44 1022.40 1022.26 1022.05 1021.80 1021.55 1021.34 1021.17 1021.08 1021.05 1021.08 1021.16 1021.27 1021.42 1021.59 1021.79 1022.01 1022.26 1022.52 1022.80 1023.08 1023.35 1023.58 1023.78 1023.94 1024.08 1024.20 1024.34 1024.51 1024.71 1024.94 1025.20 1025.44 1025.66 1025.82 1025.90 1025.93 1025.89 1025.83 1025.78
1022.14 1022.51 1022.78 1022.92 1022.92 1022.79 1022.55 1022.24 1021.89 1021.53 1021.21 1020.94 1020.73 1020.59 1020.52 1020.52 1020.59 1020.71 1020.91 1021.16 1021.48 1021.84 1022.23 1022.63 1023.02 1023.36 1023.66 1023.89 1024.07 1024.20 1024.32 1024.44 1024.59 1024.78 1025.01 1025.26 1025.50 1025.73 1025.90 1026.00 1026.03 1026.00 1025.94 1025.88
1022.69 1023.09 1023.35 1023.46 1023.42 1023.22 1022.90 1022.49 1022.03 1021.54 1021.08 1020.66 1020.30 1020.01 1019.81 1019.71 1019.71 1019.82 1020.04 1020.37 1020.78 1021.27 1021.79 1022.33 1022.83 1023.27 1023.64 1023.92 1024.13 1024.28 1024.40 1024.52 1024.67 1024.85 1025.07 1025.32 1025.57 1025.80 1025.98 1026.11 1026.16 1026.16 1026.12 1026.06
1023.05 1023.47 1023.74 1023.86 1023.80 1023.57 1023.20 1022.71 1022.14 1021.53 1020.92 1020.33 1019.79 1019.34 1019.00 1018.79 1018.72 1018.81 1019.06 1019.45 1019.96 1020.56 1021.22 1021.87 1022.48 1023.02 1023.46 1023.80 1024.05 1024.24 1024.38 1024.52 1024.68 1024.87 1025.09 1025.35 1025.60 1025.84 1026.05 1026.20 1026.29 1026.33 1026.32 1026.29
1023.15 1023.57 1023.85 1023.98 1023.94 1023.72 1023.33 1022.80 1022.16 1021.45 1020.70 1019.95 1019.25 1018.64 1018.16 1017.85 1017.71 1017.78 1018.04 1018.49 1019.08 1019.78 1020.53 1021.27 1021.98 1022.59 1023.10 1023.50 1023.81 1024.04 1024.23 1024.40 1024.59 1024.81 1025.05 1025.32 1025.59 1025.85 1026.07 1026.25 1026.39 1026.47 1026.52 1026.53
1022.92 1023.32 1023.62 1023.78 1023.78 1023.60 1023.24 1022.72 1022.05 1021.26 1020.42 1019.55 1018.72 1017.98 1017.38 1016.97 1016.78 1016.83 1017.10 1017.57 1018.21 1018.97 1019.79 1020.60 1021.36 1022.03 1022.59 1023.05 1023.41 1023.70 1023.94 1024.18 1024.42 1024.68 1024.96 1025.25 1025.54 1025.82 1026.07 1026.28 1026.46 1026.60 1026.70 1026.78
1022.35 1022.72 1023.03 1023.23 1023.30 1023.19 1022.90 1022.43 1021.78 1020.98 1020.09 1019.15 1018.24 1017.41 1016.73 1016.25 1016.02 1016.03 1016.30 1016.78 1017.45 1018.22 1019.06 1019.90 1020.68 1021.38 1021.97 1022.47 1022.89 1023.25 1023.57 1023.88 1024.19 1024.51 1024.84 1025.18 1025.50 1025.80 1026.07 1026.31 1026.52 1026.71 1026.87 1027.01
1021.51 1021.85 1022.17 1022.42 1022.56 1022.55 1022.36 1021.97 1021.38 1020.62 1019.73 1018.78 1017.82 1016.95 1016.22 1015.71 1015.44 1015.44 1015.69 1016.16 1016.81 1017.57 1018.39 1019.21 1019.98 1020.69 1021.30 1021.84 1022.31 1022.74 1023.14 1023.54 1023.94 1024.35 1024.74 1025.13 1025.48 1025.81 1026.10 1026.36 1026.60 1026.81 1027.02 1027.21
1020.51 1020.82 1021.15 1021.46 1021.69 1021.79 1021.70 1021.41 1020.91 1020.21 1019.36 1018.43 1017.48 1016.60 1015.85 1015.32 1015.04 1015.01 1015.23 1015.67 1016.28 1017.00 1017.78 1018.55 1019.29 1019.98 1020.61 1021.17 1021.70 1022.21 1022.71 1023.20 1023.70 1024.19 1024.66 1025.10 1025.50 1025.86 1026.17 1026.44 1026.69 1026.92 1027.15 1027.38
1019.52 1019.81 1020.16 1020.52 1020.82 1021.01 1021.03 1020.83 1020.41 1019.78 1018.98 1018.08 1017.16 1016.29 1015.55 1015.01 1014.71 1014.66 1014.84 1015.23 1015.78 1016.44 1017.15 1017.87 1018.58 1019.25 1019.88 1020.48 1021.07 1021.66 1022.25 1022.85 1023.44 1024.03 1024.58 1025.08 1025.53 1025.91 1026.24 1026.52 1026.78 1027.02 1027.26 1027.50
1018.69 1018.98 1019.34 1019.73 1020.09 1020.33 1020.40 1020.26 1019.90 1019.31 1018.56 1017.69 1016.79 1015.94 1015.21 1014.66 1014.34 1014.26 1014.39 1014.72 1015.21 1015.79 1016.44 1017.11 1017.77 1018.43 1019.08 1019.72 1020.38 1021.05 1021.73 1022.43 1023.12 1023.79 1024.42 1024.98 1025.48 1025.90 1026.26 1026.56 1026.83 1027.08 1027.33 1027.58
1018.17 1018.44 1018.81 1019.19 1019.54 1019.79 1019.86 1019.72 1019.36 1018.78 1018.04 1017.18 1016.29 1015.44 1014.71 1014.16 1013.81 1013.68 1013.76 1014.03 1014.44 1014.95 1015.54 1016.17 1016.81 1017.48 1018.15 1018.85 1019.58 1020.33 1021.11 1021.89 1022.67 1023.41 1024.11 1024.74 1025.29 1025.76 1026.16 1026.50 1026.81 1027.09 1027.35 1027.61
1018.01 1018.26 1018.58 1018.92 1019.20 1019.37 1019.37 1019.17 1018.74 1018.12 1017.34 1016.46 1015.56 1014.71 1013.97 1013.39 1013.01 1012.84 1012.86 1013.06 1013.41 1013.86 1014.40 1015.01 1015.65 1016.34 1017.06 1017.83 1018.63 1019.46 1020.32 1021.18 1022.02 1022.83 1023.59 1024.27 1024.88 1025.41 1025.88 1026.29 1026.66 1026.99 1027.30 1027.60
1018.20 1018.39 1018.62 1018.84 1018.98 1019.00 1018.85 1018.51 1017.96 1017.25 1016.40 1015.48 1014.55 1013.68 1012.92 1012.33 1011.92 1011.71 1011.68 1011.82 1012.11 1012.52 1013.03 1013.63 1014.29 1015.02 1015.81 1016.65 1017.53 1018.44 1019.36 1020.28 1021.17 1022.03 1022.82 1023.56 1024.22 1024.83 1025.38 1025.88 1026.35 1026.78 1027.18 1027.54
1018.62 1018.72 1018.80 1018.83 1018.76 1018.56 1018.20 1017.66 1016.95 1016.11 1015.17 1014.20 1013.24 1012.36 1011.60 1011.00 1010.58 1010.34 1010.27 1010.38 1010.62 1011.00 1011.50 1012.11 1012.81 1013.59 1014.44 1015.35 1016.31 1017.29 1018.26 1019.22 1020.15 1021.03 1021.85 1022.62 1023.34 1024.02 1024.67 1025.29 1025.88 1026.44 1026.96 1027.43
1019.12 1019.06 1018.94 1018.73 1018.40 1017.93 1017.31 1016.55 1015.66 1014.68 1013.66 1012.65 1011.69 1010.83 1010.10 1009.52 1009.11 1008.87 1008.79 1008.87 1009.09 1009.46 1009.95 1010.58 1011.31 1012.14 1013.06 1014.04 1015.06 1016.09 1017.11 1018.09 1019.03 1019.91 1020.75 1021.54 1022.31 1023.06 1023.80 1024.54 1025.27 1025.97 1026.64 1027.25
1019.49 1019.24 1018.88 1018.40 1017.78 1017.02 1016.14 1015.15 1014.10 1013.01 1011.95 1010.94 1010.02 1009.22 1008.56 1008.06 1007.70 1007.49 1007.42 1007.50 1007.71 1008.07 1008.56 1009.19 1009.95 1010.83 1011.80 1012.83 1013.90 1014.96 1016.00 1016.99 1017.93 1018.80 1019.63 1020.43 1021.23 1022.03 1022.86 1023.71 1024.56 1025.42 1026.23 1026.98
1019.55 1019.09 1018.49 1017.73 1016.83 1015.81 1014.69 1013.53 1012.35 1011.22 1010.15 1009.20 1008.38 1007.71 1007.17 1006.78 1006.51 1006.37 1006.34 1006.43 1006.64 1006.98 1007.47 1008.09 1008.86 1009.75 1010.74 1011.80 1012.89 1013.98 1015.02 1016.01 1016.93 1017.79 1018.61 1019.40 1020.21 1021.04 1021.93 1022.85 1023.82 1024.78 1025.72 1026.60
1019.18 1018.52 1017.69 1016.69 1015.55 1014.32 1013.04 1011.76 1010.54 1009.42 1008.44 1007.61 1006.94 1006.43 1006.07 1005.82 1005.68 1005.63 1005.66 1005.77 1005.98 1006.31 1006.76 1007.36 1008.10 1008.97 1009.95 1011.00 1012.09 1013.18 1014.22 1015.20 1016.10 1016.94 1017.74 1018.53 1019.32 1020.17 1021.08 1022.04 1023.06 1024.10 1025.12 1026.09
1018.34 1017.50 1016.48 1015.30 1014.01 1012.65 1011.29 1009.99 1008.80 1007.78 1006.93 1006.27 1005.81 1005.50 1005.33 1005.27 1005.27 1005.32 1005.41 1005.54 1005.74 1006.03 1006.43 1006.97 1007.65 1008.46 1009.40 1010.41 1011.47 1012.54 1013.57 1014.53 1015.43 1016.26 1017.05 1017.82 1018.61 1019.44 1020.34 1021.31 1022.34 1023.39 1024.44 1025.45
1017.04 1016.08 1014.93 1013.66 1012.30 1010.91 1009.57 1008.34 1007.27 1006.39 1005.73 1005.29 1005.04 1004.95 1004.98 1005.08 1005.22 1005.36 1005.50 1005.65 1005.83 1006.06 1006.39 1006.84 1007.42 1008.15 1009.00 1009.95 1010.96 1011.98 1013.00 1013.96 1014.86 1015.69 1016.48 1017.25 1018.03 1018.85 1019.72 1020.65 1021.64 1022.67 1023.69 1024.69
1015.37 1014.32 1013.14 1011.85 1010.52 1009.21 1007.98 1006.90 1006.00 1005.32 1004.88 1004.64 1004.60 1004.70 1004.90 1005.15 1005.40 1005.61 1005.79 1005.94 1006.08 1006.24 1006.47 1006.81 1007.28 1007.89 1008.63 1009.49 1010.44 1011.42 1012.41 1013.37 1014.29 1015.15 1015.97 1016.75 1017.54 1018.34 1019.17 1020.06 1020.98 1021.94 1022.90 1023.83
1013.41 1012.35 1011.19 1009.98 1008.78 1007.63 1006.59 1005.71 1005.03 1004.56 1004.31 1004.27 1004.40 1004.65 1004.97 1005.30 1005.62 1005.87 1006.06 1006.18 1006.28 1006.37 1006.51 1006.73 1007.07 1007.56 1008.19 1008.95 1009.82 1010.75 1011.73 1012.70 1013.65 1014.55 1015.42 1016.25 1017.05 1017.85 1018.66 1019.49 1020.35 1021.21 1022.08 1022.93
1011.29 1010.25 1009.18 1008.12 1007.11 1006.18 1005.38 1004.74 1004.29 1004.02 1003.94 1004.03 1004.26 1004.59 1004.97 1005.34 1005.66 1005.92 1006.10 1006.20 1006.24 1006.27 1006.33 1006.46 1006.69 1007.07 1007.59 1008.26 1009.05 1009.94 1010.90 1011.89 1012.88 1013.84 1014.77 1015.66 1016.51 1017.34 1018.14 1018.93 1019.72 1020.50 1021.27 1022.03
Thickness
5573 5568 5565 5568 5566 5570 5567 5565 5567 5571 5570 5570 5572 5580 5590 5590 5586 5586 5586 5586 5588 5591 5592 5590 5589 5589 5587 5586 5584 5584 5582 5581 5579 5577 5575 5573 5571 5570 5569 5568 5566 5564 5562 5561
5563 5562 5565 5564 5563 5562 5562 5562 5563 5566 5565 5564 5566 5574 5586 5588 5588 5588 5587 5587 5587 5587 5587 5586 5585 5584 5583 5582 5581 5580 5579 5577 5576 5574 5572 5570 5567 5565 5564 5562 5560 5558 5557 5555
5562 5560 5559 5559 5558 5558 5557 5557 5558 5558 5558 5559 5559 5577 5587 5590 5586 5586 5584 5584 5584 5584 5583 5582 5581 5579 5578 5578 5577 5577 5575 5573 5572 5570 5566 5564 5561 5559 5557 5556 5555 5553 5552 5551
5548 5551 5554 5555 5554 5555 5555 5553 5552 5551 5549 5548 5553 5557 5580 5584 5582 5584 5583 5579 5578 5578 5578 5578 5577 5575 5574 5574 5573 5572 5570 5568 5566 5564 5562 5560 5558 5556 5555 5553 5551 5549 5548 5547
5545 5545 5548 5551 5550 5548 5547 5545 5544 5544 5543 5541 5544 5545 5569 5575 5581 5585 5582 5577 5574 5573 5572 5572 5572 5572 5571 5569 5567 5566 5564 5563 5561 5559 5558 5556 5555 5553 5550 5548 5546 5544 5543 5542
5534 5536 5538 5541 5539 5539 5537 5537 5535 5528 5528 5534 5543 5541 5559 5567 5580 5584 5581 5574 5570 5568 5566 5566 5566 5566 5565 5563 5562 5560 5559 5558 5556 5554 5553 5552 5551 5548 5546 5544 5541 5539 5538 5536
5534 5532 5531 5532 5533 5532 5533 5532 5522 5522 5513 5526 5536 5538 5556 5574 5574 5574 5574 5570 5565 5561 5560 5560 5559 5558 5558 5557 5555 5554 5553 5552 5550 5549 5548 5548 5546 5545 5543 5541 5538 5535 5533 5532
5529 5531 5526 5525 5530 5528 5527 5531 5523 5521 5518 5524 5530 5535 5563 5570 5568 5565 5563 5561 5558 5554 5553 5553 5553 5551 5551 5550 5549 5547 5547 5546 5545 5544 5543 5543 5541 5540 5539 5537 5535 5533 5531 5530
5522 5524 5516 5516 5518 5523 5521 5518 5523 5511 5498 5506 5526 5536 5557 5567 5563 5560 5557 5554 5551 5548 5547 5546 5546 5544 5544 5544 5543 5543 5542 5541 5539 5539 5539 5538 5537 5535 5534 5533 5530 5528 5526 5525
5519 5515 5511 5507 5510 5511 5515 5512 5508 5506 5509 5513 5530 5539 5548 5566 5560 5554 5550 5547 5546 5542 5541 5540 5539 5537 5537 5538 5538 5538 5537 5536 5535 5534 5533 5533 5532 5531 5529 5527 5525 5523 5521 5519
5510 5507 5501 5500 5501 5506 5505 5505 5505 5498 5500 5509 5516 5540 5549 5551 5551 5545 5542 5541 5539 5537 5535 5534 5532 5531 5530 5531 5531 5531 5531 5530 5529 5528 5528 5526 5525 5525 5523 5521 5519 5517 5516 5514
5499 5494 5492 5496 5494 5495 5500 5504 5501 5505 5497 5493 5507 5530 5546 5541 5538 5535 5534 5534 5533 5531 5528 5526 5525 5524 5523 5523 5523 5523 5523 5523 5522 5522 5520 5519 5518 5517 5515 5514 5513 5511 5509 5507
5491 5488 5487 5495 5491 5483 5488 5493 5494 5495 5489 5481 5493 5526 5537 5532 5530 5528 5525 5524 5524 5522 5521 5518 5517 5516 5515 5515 5515 5516 5516 5515 5514 5513 5512 5511 5510 5509 5508 5506 5505 5503 5502 5500
5485 5478 5486 5498 5503 5489 5484 5484 5483 5485 5484 5482 5497 5517 5526 5526 5522 5520 5517 5515 5513 5512 5512 5510 5509 5508 5507 5506 5507 5507 5507 5507 5506 5505 5504 5503 5502 5501 5499 5498 5496 5495 5493 5492
5472 5468 5467 5475 5478 5476 5479 5481 5476 5479 5487 5493 5509 5508 5518 5516 5513 5510 5508 5506 5505 5504 5503 5502 5501 5500 5498 5497 5497 5498 5498 5498 5497 5496 5495 5494 5492 5491 5489 5488 5487 5485 5484 5482
5455 5455 5453 5457 5464 5464 5468 5476 5474 5475 5478 5482 5490 5498 5510 5504 5500 5497 5496 5495 5494 5495 5495 5494 5493 5492 5491 5489 5488 5488 5488 5488 5487 5486 5485 5484 5482 5481 5479 5478 5476 5475 5473 5471
5438 5438 5441 5448 5443 5451 5463 5480 5475 5470 5468 5474 5485 5501 5501 5495 5492 5489 5488 5485 5486 5487 5486 5485 5485 5484 5483 5480 5479 5478 5478 5477 5476 5475 5474 5472 5471 5470 5469 5467 5466 5464 5462 5460
5431 5428 5425 5425 5433 5452 5488 5483 5477 5471 5472 5470 5479 5488 5488 5485 5479 5476 5475 5475 5477 5477 5477 5476 5475 5474 5472 5471 5470 5469 5468 5467 5466 5464 5463 5461 5460 5459 5458 5456 5455 5453 5451 5448
5428 5424 5413 5414 5423 5439 5465 5467 5461 5463 5471 5472 5471 5477 5474 5470 5467 5468 5469 5466 5467 5466 5465 5465 5464 5463 5461 5459 5459 5458 5457 5455 5454 5453 5452 5451 5449 5448 5447 5445 5444 5442 5440 5438
5413 5414 5408 5402 5419 5431 5471 5465 5456 5461 5465 5470 5463 5465 5463 5459 5461 5466 5464 5457 5455 5454 5453 5452 5451 5450 5448 5447 5446 5445 5444 5443 5442 5442 5441 5440 5439 5438 5436 5435 5433 5431 5429 5428
5394 5395 5396 5395 5404 5425 5446 5444 5447 5453 5465 5463 5456 5455 5451 5447 5452 5451 5447 5444 5443 5441 5439 5438 5437 5437 5436 5434 5433 5432 5430 5430 5430 5430 5430 5429 5428 5426 5425 5423 5422 5419 5417 5415
5397 5390 5387 5385 5393 5424 5434 5428 5439 5450 5449 5445 5441 5440 5437 5436 5436 5433 5432 5431 5429 5426 5425 5424 5423 5422 5421 5419 5419 5419 5418 5418 5417 5416 5416 5416 5415 5414 5412 5410 5409 5406 5404 5402
5395 5404 5402 5406 5422 5428 5419 5423 5426 5427 5428 5427 5425 5424 5423 5422 5422 5421 5419 5418 5415 5413 5411 5410 5408 5408 5406 5405 5405 5406 5405 5403 5403 5403 5402 5402 5401 5400 5399 5397 5395 5392 5391 5389
5377 5382 5386 5385 5402 5407 5404 5404 5406 5407 5408 5409 5409 5409 5407 5407 5408 5406 5405 5403 5400 5398 5396 5394 5393 5393 5392 5391 5391 5391 5390 5389 5389 5389 5389 5388 5387 5387 5385 5383 5381 5380 5378 5376
5376 5366 5370 5376 5388 5390 5393 5393 5395 5394 5392 5391 5391 5391 5391 5391 5391 5390 5389 5387 5385 5384 5381 5380 5378 5379 5378 5377 5376 5376 5375 5374 5374 5374 5374 5374 5373 5372 5371 5370 5368 5368 5367 5364
5357 5357 5367 5385 5385 5382 5388 5385 5380 5379 5379 5378 5377 5376 5375 5373 5374 5374 5372 5370 5368 5367 5365 5364 5363 5363 5363 5362 5362 5361 5360 5359 5359 5359 5359 5359 5358 5357 5357 5356 5355 5355 5354 5353